This is the latest recevied weather packets stored in our database for station/object XE1E-15. If no packets are shown the sender has not sent any weather packets the latest 10 day(s).
| Time | Temp. | Humidity | Pressure | Rain* | Wind** | Luminosity | Snow |
|---|---|---|---|---|---|---|---|
| 1777452216 | 23.89° C | 34% | 1023.7 hPa | - | - | - | - |
| 1777451255 | 23.89° C | 33% | 1023.8 hPa | - | - | - | - |
| 1777450295 | 24.44° C | 34% | 1023.9 hPa | - | - | - | - |
| 1777449335 | 24.44° C | 33% | 1024 hPa | - | - | - | - |
| 1777448375 | 24.44° C | 33% | 1024.1 hPa | - | - | - | - |
| 1777447897 | 24.44° C | 32% | 1024.1 hPa | - | - | - | - |
| 1777447028 | 24.44° C | 33% | 1024.2 hPa | - | - | - | - |
| 1777446937 | 24.44° C | 33% | 1024.2 hPa | - | - | - | - |
| 1777445977 | 25° C | 32% | 1024.3 hPa | - | - | - | - |
| 1777445049 | 24.44° C | 32% | 1024.5 hPa | - | - | - | - |
| 1777445016 | 24.44° C | 32% | 1024.5 hPa | - | - | - | - |
| 1777444056 | 25.56° C | 32% | 1024.7 hPa | - | - | - | - |
| 1777443096 | 25° C | 31% | 1024.7 hPa | - | - | - | - |
| 1777442136 | 25° C | 31% | 1024.9 hPa | - | - | - | - |
| 1777441176 | 25.56° C | 31% | 1025.1 hPa | - | - | - | - |
| 1777440216 | 25.56° C | 32% | 1024.9 hPa | - | - | - | - |
| 1777439256 | 26.11° C | 31% | 1024.9 hPa | - | - | - | - |
| 1777438296 | 25.56° C | 34% | 1024.9 hPa | - | - | - | - |
| 1777437336 | 26.11° C | 36% | 1025 hPa | - | - | - | - |
| 1777436376 | 26.11° C | 36% | 1024.8 hPa | - | - | - | - |
| 1777435415 | 26.67° C | 36% | 1024.6 hPa | - | - | - | - |
| 1777434455 | 26.67° C | 36% | 1024.5 hPa | - | - | - | - |
| 1777433495 | 26.11° C | 35% | 1024.2 hPa | - | - | - | - |
| 1777432535 | 26.67° C | 35% | 1024.1 hPa | - | - | - | - |
| 1777431575 | 26.67° C | 34% | 1024 hPa | - | - | - | - |
* Rain since midnight (hover to see other rain measurements)
** Current wind speed in m/s (hover to see current wind gust speed)